Regional Weather Roundup
Issued by NWS

Home | Current Version | Previous Version | Text Only | Print | Product List | Glossary Off
Versions: 1 2 3 4 5 6 7 8 9 10 11 12 13 14 15 16 17 18 19 20 21 22 23 24 25 26 27 28 29 30 31 32 33 34 35 36 37 38 39 40 41 42 43 44 45 46 47 48 49 50

000
ASUS43 KOAX 170702
RWRNE

WEATHER ROUNDUP FOR NEBRASKA
NATIONAL WEATHER SERVICE OMAHA NE
200 AM CDT TUE OCT 17 2017

NOTES: SATELLITE DATA IS BEING USED TO AUGMENT CLOUD COVER ABOVE
       12000 FEET.
       "FAIR" INDICATES FEW OR NO CLOUDS BELOW 12,000 FEET WITH NO
       SIGNIFICANT WEATHER AND/OR OBSTRUCTIONS TO VISIBILITY.


NEZ001>004-019>022-054>056-170800-
NEBRASKA PANHANDLE

CITY           SKY/WX    TMP DP  RH WIND       PRES   REMARKS
SCOTTSBLUFF    CLOUDY    36  26  67 NW5       30.18F WCI  32
ALLIANCE       CLOUDY    31  25  78 W8        30.16F WCI  23
CHADRON        CLEAR     36  26  67 SW5       30.14S WCI  32
GORDON         FAIR      36  30  77 W5        30.13S WCI  32
KIMBALL        CLOUDY    37  24  59 W8        30.23F WCI  31
SIDNEY         CLOUDY    36  25  64 NW12      30.20F WCI  28
$$

NEZ057>060-069>072-079>082-170800-
SOUTHWEST NEBRASKA

CITY           SKY/WX    TMP DP  RH WIND       PRES   REMARKS
NORTH PLATTE   CLEAR     37  33  85 NW8       30.12S WCI  31
IMPERIAL       CLEAR     45  29  53 NW7       30.14F
LEXINGTON      CLEAR     42  35  76 W7        30.09S
MCCOOK         CLEAR     47  38  71 W6        30.11S
OGALLALA       CLEAR     37  32  82 W6        30.15S WCI  33
$$

NEZ005>010-023>029-035>040-094-170800-
NORTH CENTRAL NEBRASKA

CITY           SKY/WX    TMP DP  RH WIND       PRES   REMARKS
VALENTINE      CLEAR     39  32  76 W3        30.10S
AINSWORTH      CLEAR     41  36  80 CALM      30.09S
BROKEN BOW     CLEAR     42  35  76 CALM      30.07S
O`NEILL        CLEAR     43  40  90 W6        30.06R
ORD            CLEAR     39  34  82 CALM      30.05S
$$

NEZ041-046>049-061>064-073>077-083>087-170800-
SOUTH CENTRAL NEBRASKA

CITY           SKY/WX    TMP DP  RH WIND       PRES   REMARKS
GRAND ISLAND   CLOUDY    53  39  59 S10       30.08S
AURORA         PTCLDY    52  38  58 SW9       30.08S
HASTINGS       PTCLDY    52  37  56 S8        30.09F
HEBRON         PTCLDY    55  40  58 S10G16    30.12F
HOLDREGE       CLEAR     49  37  64 S7        30.08F
KEARNEY        CLEAR     49  37  63 S10       30.08F
YORK           PTCLDY    52  39  62 S10       30.09S
$$

NEZ011>018-030>034-042>045-170800-
NORTHEAST NEBRASKA

CITY           SKY/WX    TMP DP  RH WIND       PRES   REMARKS
NORFOLK        CLEAR     52  39  61 SW10      30.04S
ALBION         CLEAR     52  38  59 SE3       30.06S
BLAIR          CLEAR     55  41  60 S12       30.09S
COLUMBUS       CLEAR     54  39  57 SW8       30.08S
FREMONT        CLEAR     56  39  54 S5        30.09S
TEKAMAH        CLEAR     54  32  43 S7        30.08S
WAYNE          CLEAR     51  37  57 CALM      30.05R
$$

NEZ050>053-065>068-078-088>093-170800-
SOUTHEAST NEBRASKA

CITY           SKY/WX    TMP DP  RH WIND       PRES   REMARKS
LINCOLN        PTCLDY    57  39  51 S13       30.11F
OMAHA EPPLEY   PTCLDY    51  41  68 S12       30.11F
BEATRICE       PTCLDY    55  41  57 S10       30.13F
FALLS CITY     PTCLDY    51  40  65 S7        30.17S
NEBRASKA CITY  CLOUDY    51  41  68 SW9       30.13F
PLATTSMOUTH    PTCLDY    52  41  67 S9        30.12S
$$

NEZ044-045-051>053-067-170800-
OMAHA AREA

CITY           SKY/WX    TMP DP  RH WIND       PRES   REMARKS
OMAHA EPPLEY   PTCLDY    51  41  68 S12       30.11F
BLAIR          CLEAR     55  41  60 S12       30.09S
FREMONT        CLEAR     56  39  54 S5        30.09S
MILLARD        CLEAR     52  42  70 SE6       30.11S
OFFUTT AFB     CLEAR     46  40  82 E5        30.11F
PLATTSMOUTH    PTCLDY    52  41  67 S9        30.12S
WAHOO          FAIR      54  40  57 S8        30.09S
$$




USA.gov is the U.S. government's official web portal to all federal, state and local government web resources and services.